Latest Coastal Weather Observations for Lady Elliot Island

IDQ60701

Issued at 2:22 am EST Friday 5 March 2021 (issued every 10 minutes, with the page automatically refreshed every 10 minutes)

About coastal observations | Map of coastal stations | Coastal observations for QLD | Marine services | Other Formats
Station Details ID: 039059 Name: LADY ELLIOT ISLAND Lat: -24.11 Lon: 152.72 Height: 3.6 m
Data from the previous 72 hours. | See also: Recent months at Lady Elliot Island
Date/Time
EST
Wind Sea
Height
m
Swell Vis
km
Cloud Weather Temp
°C
Press
MSL
hPa
Rain since
9am
mm
Dir  Spd
kts
Gust
kts
Height
m
Period
s
Dir
05/02:00am SE 18 23 - - - - - - - 25.0 1007.0 0.0
05/01:30am ESE 19 24 - - - - - - - 24.8 1007.1 0.0
05/01:00am ESE 21 25 - - - - - - - 25.0 1007.3 0.0
05/12:30am ESE 19 25 - - - - - - - 24.8 1007.7 0.0
05/12:00am ESE 21 27 - - - - - - - 24.9 1007.9 0.0
 
Date/Time
EST
Wind Sea
Height
m
Swell Vis
km
Cloud Weather Temp
°C
Press
MSL
hPa
Rain since
9am
mm
Dir  Spd
kts
Gust
kts
Height
m
Period
s
Dir
04/11:30pm ESE 21 27 - - - - - - - 25.0 1008.2 0.0
04/11:00pm ESE 20 28 - - - - - - - 25.2 1008.3 0.0
04/10:30pm SE 21 27 - - - - - - - 25.2 1008.5 0.0
04/10:00pm SE 22 27 - - - - - - - 25.2 1008.7 0.0
04/09:30pm SE 21 27 - - - - - - - 25.3 1008.9 0.0
04/09:00pm SE 21 26 - - - - - - - 25.3 1008.7 0.0
04/08:30pm ESE 22 29 - - - - - - - 25.4 1008.4 0.0
04/08:00pm ESE 22 27 - - - - - - - 25.3 1008.3 0.0
04/07:30pm SE 21 28 - - - - - - - 25.5 1008.2 0.0
04/07:00pm ESE 22 28 - - - - - - - 25.7 1008.1 0.0
04/06:30pm ESE 21 28 - - - - - - - 25.8 1008.0 0.0
04/06:00pm ESE 21 26 - - - - - - - 25.7 1007.7 0.0
04/05:30pm ESE 22 27 - - - - - - - 26.3 1007.5 0.0
04/05:00pm SE 22 29 - - - - - - - 26.0 1007.3 0.0
04/04:30pm SE 23 28 - - - - - - - 26.9 1007.1 0.0
04/04:00pm ESE 23 28 - - - - - - - 27.8 1006.9 0.0
04/03:30pm ESE 23 29 - - - - - - - 27.8 1007.0 0.0
04/03:00pm ESE 22 28 - - - - - - - 28.0 1007.0 0.0
04/02:30pm SE 23 29 - - - - - - - 27.8 1007.0 0.0
04/02:00pm SE 22 30 - - - - - - - 28.4 1007.3 0.0
04/01:30pm ESE 22 29 - - - - - - - 29.4 1007.8 0.0
04/01:00pm SE 22 28 - - - - - - - 29.2 1008.1 0.0
04/12:30pm SE 20 26 - - - - - - - 29.1 1008.1 0.0
04/12:00pm ESE 21 25 - - - - - - - 29.4 1008.4 0.0
04/11:30am ESE 20 26 - - - - - - - 28.7 1008.6 0.0
04/11:00am ESE 21 26 - - - - - - - 28.0 1008.7 0.0
04/10:30am ESE 18 25 - - - - - - - 27.8 1008.9 0.0
04/10:00am ESE 20 25 - - - - - - - 28.0 1009.0 0.0
04/09:30am ESE 21 26 - - - - - - - 28.3 1008.9 0.0
04/09:00am ESE 22 26 - - - - - - - 28.0 1008.8 0.0
04/08:30am ESE 21 25 - - - - - - - 27.4 1008.6 0.0
04/08:00am ESE 21 27 - - - - - - - 27.1 1008.3 0.0
04/07:30am ESE 22 28 - - - - - - - 26.8 1008.0 0.0
04/07:00am ESE 21 27 - - - - - - - 26.4 1007.9 0.0
04/06:30am SE 20 26 - - - - - - - 25.9 1007.8 0.0
04/06:00am ESE 23 29 - - - - - - - 25.7 1007.6 0.0
04/05:30am ESE 22 28 - - - - - - - 25.8 1007.3 0.0
04/05:00am ESE 21 28 - - - - - - - 26.0 1006.9 0.0
04/04:30am ESE 23 27 - - - - - - - 25.8 1006.8 0.0
04/04:00am SE 21 28 - - - - - - - 25.7 1006.5 0.0
04/03:30am SE 21 26 - - - - - - - 26.0 1006.5 0.0
04/03:00am ESE 20 25 - - - - - - - 26.0 1006.4 0.0
04/02:30am ESE 21 26 - - - - - - - 25.9 1006.6 0.0
04/02:00am ESE 21 25 - - - - - - - 26.1 1006.7 0.0
04/01:30am ESE 21 26 - - - - - - - 26.2 1006.9 0.0
04/01:00am ESE 21 26 - - - - - - - 26.4 1007.1 0.0
04/12:30am ESE 21 26 - - - - - - - 26.3 1007.3 0.0
04/12:00am ESE 20 25 - - - - - - - 26.7 1007.5 0.0
 
Date/Time
EST
Wind Sea
Height
m
Swell Vis
km
Cloud Weather Temp
°C
Press
MSL
hPa
Rain since
9am
mm
Dir  Spd
kts
Gust
kts
Height
m
Period
s
Dir
03/11:30pm ESE 20 25 - - - - - - - 26.6 1007.6 0.0
03/11:00pm ESE 20 24 - - - - - - - 26.6 1007.9 0.0
03/10:30pm ESE 20 25 - - - - - - - 26.5 1008.1 0.0
03/10:00pm ESE 19 26 - - - - - - - 26.7 1008.0 0.0
03/09:30pm ESE 19 24 - - - - - - - 26.6 1008.0 0.0
03/09:00pm ESE 20 26 - - - - - - - 26.4 1008.3 0.0
03/08:30pm ESE 19 24 - - - - - - - 26.7 1008.3 0.0
03/08:00pm ESE 18 22 - - - - - - - 26.8 1007.9 0.0
03/07:30pm ESE 18 22 - - - - - - - 26.6 1007.6 0.0
03/07:00pm ESE 17 21 - - - - - - - 26.6 1007.3 0.0
03/06:30pm ESE 17 22 - - - - - - - 26.6 1007.1 0.0
03/06:00pm ESE 18 23 - - - - - - - 27.2 1006.8 0.0
03/05:30pm ESE 17 22 - - - - - - - 27.3 1006.5 0.0
03/05:00pm E 17 21 - - - - - - - 27.8 1006.4 0.0
03/04:30pm ESE 18 23 - - - - - - - 28.3 1006.5 0.0
03/04:00pm ESE 17 20 - - - - - - - 28.9 1006.7 0.0
03/03:30pm ESE 15 19 - - - - - - - 29.3 1006.9 0.0
03/03:00pm ESE 14 17 - - - - - - - 29.5 1006.8 0.0
03/02:30pm ESE 13 16 - - - - - - - 29.9 1007.1 0.0
03/02:00pm ESE 13 17 - - - - - - - 30.4 1007.4 0.0
03/01:30pm SE 13 16 - - - - - - - 31.6 1007.7 0.0
03/01:00pm SE 13 18 - - - - - - - 30.4 1007.8 0.0
03/12:30pm SE 13 17 - - - - - - - 30.4 1008.2 0.0
03/12:00pm SE 12 14 - - - - - - - 30.7 1008.5 0.0
03/11:30am SE 13 16 - - - - - - - 30.8 1008.9 0.0
03/11:00am SE 13 16 - - - - - - - 30.8 1009.2 0.0
03/10:30am SE 12 15 - - - - - - - 30.7 1009.4 0.0
03/10:00am ESE 11 15 - - - - - - - 31.0 1009.4 0.0
03/09:30am ESE 11 15 - - - - - - - 30.0 1009.5 0.0
03/09:00am ESE 12 15 - - - - - - - 29.0 1009.5 0.0
03/08:30am ESE 12 15 - - - - - - - 28.9 1009.4 0.0
03/08:00am ESE 12 16 - - - - - - - 28.4 1009.2 0.0
03/07:30am ESE 11 14 - - - - - - - 27.5 1009.2 0.0
03/07:00am ESE 13 15 - - - - - - - 27.0 1008.9 0.0
03/06:30am ESE 11 14 - - - - - - - 26.6 1008.8 0.0
03/06:00am ESE 12 15 - - - - - - - 26.1 1008.4 0.0
03/05:30am ESE 12 14 - - - - - - - 26.1 1008.1 0.0
03/05:00am ESE 13 16 - - - - - - - 26.1 1007.8 0.0
03/04:30am ESE 13 16 - - - - - - - 26.0 1007.6 0.0
03/04:00am ESE 14 17 - - - - - - - 26.1 1007.4 0.0
03/03:30am ESE 11 14 - - - - - - - 26.2 1007.2 0.0
03/03:00am E 10 13 - - - - - - - 26.1 1007.1 0.0
03/02:30am ESE 12 13 - - - - - - - 26.0 1007.3 0.0
03/02:00am ESE 11 13 - - - - - - - 26.0 1007.2 0.0
03/01:30am E 11 14 - - - - - - - 26.2 1007.4 0.0
03/01:00am E 11 14 - - - - - - - 26.4 1007.6 0.0
03/12:30am E 11 14 - - - - - - - 26.3 1007.7 0.0
03/12:00am ENE 11 16 - - - - - - - 26.3 1007.6 0.0
 
Date/Time
EST
Wind Sea
Height
m
Swell Vis
km
Cloud Weather Temp
°C
Press
MSL
hPa
Rain since
9am
mm
Dir  Spd
kts
Gust
kts
Height
m
Period
s
Dir
02/11:30pm ENE 12 16 - - - - - - - 26.4 1007.9 0.0
02/11:00pm E 12 15 - - - - - - - 26.5 1008.1 0.0
02/10:30pm E 12 15 - - - - - - - 26.7 1008.3 0.0
02/10:00pm E 12 15 - - - - - - - 26.6 1008.2 0.0
02/09:30pm E 12 15 - - - - - - - 26.7 1008.2 0.0
02/09:00pm ESE 11 14 - - - - - - - 26.5 1008.2 0.0
02/08:30pm ESE 12 14 - - - - - - - 26.7 1007.9 0.0
02/08:00pm ESE 12 15 - - - - - - - 26.6 1007.6 0.0
02/07:30pm E 13 16 - - - - - - - 26.7 1007.0 0.0
02/07:00pm E 13 16 - - - - - - - 27.0 1006.8 0.0
02/06:30pm E 11 14 - - - - - - - 26.7 1006.8 0.0
02/06:00pm E 12 16 - - - - - - - 27.2 1006.7 0.0
02/05:30pm E 13 15 - - - - - - - 27.7 1006.7 0.0
02/05:00pm E 12 15 - - - - - - - 27.9 1006.5 0.0
02/04:30pm E 12 14 - - - - - - - 28.5 1006.6 0.0
02/04:00pm ESE 11 14 - - - - - - - 29.4 1006.6 0.0
02/03:30pm ESE 10 13 - - - - - - - 29.3 1007.1 0.0
02/03:00pm ESE 9 11 - - - - - - - 29.5 1007.2 0.0
02/02:30pm ESE 10 12 - - - - - - - 29.9 1007.3 0.0
02/02:00pm SE 10 12 - - - - - - - 30.3 1007.5 0.0
02/01:30pm SE 10 13 - - - - - - - 30.8 1007.5 0.0
02/01:00pm ESE 11 14 - - - - - - - 30.5 1007.7 0.0
02/12:30pm SE 11 13 - - - - - - - 30.2 1008.0 0.0
02/12:00pm ESE 10 13 - - - - - - - 30.4 1008.4 0.0
02/11:30am ESE 10 12 - - - - - - - 30.4 1008.7 0.0
02/11:00am ESE 10 12 - - - - - - - 30.1 1009.0 0.0
02/10:30am ESE 11 13 - - - - - - - 29.8 1009.1 0.0
02/10:00am ESE 11 13 - - - - - - - 29.5 1009.3 0.0
02/09:30am ESE 11 13 - - - - - - - 28.8 1009.3 0.0
02/09:00am ESE 11 14 - - - - - - - 28.3 1009.0 0.0
02/08:30am ESE 12 14 - - - - - - - 27.5 1009.0 0.0
02/08:00am ESE 10 12 - - - - - - - 27.2 1009.1 0.0
02/07:30am SE 9 13 - - - - - - - 26.9 1008.7 0.0
02/07:00am ESE 11 13 - - - - - - - 26.4 1008.3 0.0
02/06:30am ESE 11 13 - - - - - - - 26.2 1008.0 0.0
02/06:00am ESE 11 15 - - - - - - - 26.2 1007.6 0.0
02/05:30am ESE 11 15 - - - - - - - 26.1 1007.2 0.0
02/05:00am ESE 12 14 - - - - - - - 26.1 1006.4 0.0
02/04:30am E 13 16 - - - - - - - 26.1 1005.9 0.0
02/04:00am ESE 11 14 - - - - - - - 26.0 1006.3 0.0
02/03:30am E 11 14 - - - - - - - 26.1 1006.2 0.0
02/03:00am E 11 16 - - - - - - - 26.2 1006.4 0.0
02/02:30am E 11 14 - - - - - - - 26.1 1006.9 0.0

Other formats

Comma delimited format used in spreadsheet applications
http://www.bom.gov.au/fwo/IDQ60701/IDQ60701.94388.axf

JavaScript Object Notation format (JSON) in row-major order
http://www.bom.gov.au/fwo/IDQ60701/IDQ60701.94388.json

Data quality

Most of these data are generated automatically and are frequently updated. Quality checks on data are not normally performed. It is possible for incorrect values to appear. Refer to information at About Latest Weather Observations and please check the disclaimer before using these data.